[[{"header":{"parameterUnit":"m.s-1","parameterCategory":1,"la1":30.2991,"la2":30.254,"lo1":-89.0895,"lo2":-89.0444,"dy":0.0017,"dx":0.0017,"nx":28,"ny":28,"refTime":"2024-06-03T09:00:00:Z","depth":0,"parameterNumber":2,"parameterNumberName":"U-component_of_WINDS"},"data":[0,0,0,0,0,0,0,0,0,0,0,0,0,0,0,0,0,0,0,0,0,0,0,0,0,0,0,0,0,0,0,0,0,0,0,0,0,0,0,0,0,0,0,0,0,0,0,0,0,0,0,0,0,0,0,0,0,0,-0.7503,-0.7502,0,-0.7369,-0.7367,-0.7366,-0.7308,-0.7308,-0.7308,-0.7309,-0.7164,-0.716,-0.7156,0,0,0,0,0,0,0,0,0,0,0,0,0,-0.7703,-0.77,-0.7503,-0.7502,-0.75,-0.7369,-0.7367,-0.7365,-0.7308,-0.7308,-0.7309,-0.7309,-0.7165,-0.716,-0.7155,0,0,0,0,0,0,0,0,0,0,0,0,0,-0.7597,-0.7699,-0.7504,-0.7456,-0.745,-0.7369,-0.7367,-0.7365,-0.7308,-0.7308,-0.7309,-0.7309,-0.7167,-0.7161,-0.7154,-0.7109,0,0,-0.7136,-0.7133,0,0,0,0,0,0,0,0,-0.7604,-0.759,-0.7464,-0.7459,-0.7452,-0.7356,-0.7385,-0.7279,-0.7308,-0.7362,-0.7309,-0.7309,-0.7227,-0.7216,-0.7189,-0.7102,-0.7096,-0.7135,-0.7131,-0.7129,-0.7127,0,0,0,0,0,0,0,-0.7611,-0.7596,-0.745,-0.7463,-0.7455,-0.7439,-0.7424,-0.7364,-0.7293,-0.7357,-0.7352,-0.7338,-0.7223,-0.7195,-0.7186,-0.7094,-0.7135,-0.713,-0.7126,-0.7124,-0.6962,-0.6962,0,0,0,0,0,0,-0.7627,-0.7602,-0.7454,-0.7446,-0.7531,-0.7435,-0.7418,-0.7386,-0.7294,-0.728,-0.7338,-0.7336,-0.7206,-0.7193,-0.718,-0.7121,-0.7129,-0.7123,-0.712,-0.6963,-0.6962,-0.6962,0,0,0,0,0,0,-0.7632,-0.7615,-0.7459,-0.7523,-0.7502,-0.7431,-0.7395,-0.7383,-0.7355,-0.728,-0.7266,-0.7322,-0.7206,-0.7189,-0.7128,-0.7115,-0.712,-0.7115,-0.6964,-0.6963,-0.6962,-0.7002,0,0,0,0,0,0,-0.7638,-0.7617,-0.76,-0.7523,-0.7499,-0.7411,-0.7395,-0.738,-0.7346,-0.7342,-0.7262,-0.7249,-0.7205,-0.7137,-0.7122,-0.7106,-0.711,-0.6964,-0.6963,-0.6962,-0.7001,-0.7002,-0.7003,0,0,0,0,0,-0.7645,-0.7615,-0.76,-0.7582,-0.7477,-0.7411,-0.7397,-0.7349,-0.7345,-0.7327,-0.7278,-0.7251,-0.7119,-0.7131,-0.7113,-0.7096,-0.6965,-0.6964,-0.6962,-0.7001,-0.7002,-0.7003,0,0,0,0,0,0,-0.769,-0.7604,-0.7586,-0.7531,-0.7479,-0.7401,-0.7377,-0.7352,-0.7298,-0.7296,-0.7237,-0.7219,-0.7163,-0.7123,-0.7138,-0.7047,-0.704,-0.7035,-0.7075,-0.7076,-0.7077,-0.7087,-0.7105,0,0,0,0,0,-0.7694,-0.765,-0.7576,-0.7534,-0.7509,-0.7448,-0.7417,-0.7385,-0.7328,-0.7305,-0.7252,-0.7195,-0.7141,-0.7106,-0.7052,-0.6996,-0.6976,-0.6975,-0.6976,-0.6977,-0.6973,-0.6939,-0.6937,-0.6957,-0.6957,-0.6957,0,0,-0.77,-0.7648,-0.7623,-0.7542,-0.7498,-0.7451,-0.743,-0.7381,-0.7345,-0.7297,-0.7236,-0.7195,-0.7128,-0.7069,-0.7041,-0.7035,-0.6963,-0.6975,-0.6977,-0.6972,-0.6938,-0.6936,-0.6934,-0.6956,-0.6956,-0.6956,0,0,-0.7689,-0.7646,-0.7606,-0.7563,-0.7498,-0.7457,-0.7448,-0.7374,-0.7346,-0.7285,-0.7248,-0.7203,-0.7111,-0.7065,-0.7029,-0.7001,-0.6974,-0.6985,-0.699,-0.6958,-0.6956,-0.6954,-0.6943,-0.694,-0.6982,-0.6982,-0.6982,0,-0.7704,-0.7635,-0.7588,-0.7542,-0.7506,-0.7463,-0.7422,-0.7381,-0.7301,-0.7276,-0.7272,-0.7156,-0.7107,-0.7037,-0.7031,-0.7003,-0.6989,-0.6993,-0.6961,-0.6958,-0.6956,-0.6945,-0.6941,-0.6983,-0.6983,-0.6983,-0.6983,0,-0.7657,-0.7609,-0.7585,-0.7511,-0.7473,-0.7429,-0.7374,-0.734,-0.7312,-0.7271,-0.7209,-0.715,-0.7083,-0.7064,-0.7035,-0.6989,-0.6988,-0.6973,-0.6964,-0.6957,-0.6945,-0.6941,-0.6986,-0.6985,-0.6985,-0.6984,0,0,-0.7668,-0.7571,-0.7562,-0.7528,-0.7453,-0.7414,-0.7368,-0.7306,-0.7278,-0.7224,-0.7182,-0.7106,-0.7092,-0.7052,-0.7017,-0.6989,-0.697,-0.6977,-0.6974,-0.6977,-0.6914,-0.6925,-0.6921,-0.6952,-0.6951,-0.695,-0.692,0,-0.7645,-0.7564,-0.752,-0.7455,-0.741,-0.7369,-0.7328,-0.7277,-0.7238,-0.7192,-0.7148,-0.7095,-0.7081,-0.7057,-0.7027,-0.6978,-0.6956,-0.698,-0.691,-0.6908,-0.6927,-0.6915,-0.6926,-0.6901,-0.6915,-0.6914,-0.6914,0,-0.7608,-0.7557,-0.7489,-0.742,-0.7399,-0.7364,-0.7303,-0.726,-0.7201,-0.7174,-0.7131,-0.7096,-0.7044,-0.7041,-0.6966,-0.6984,-0.6953,-0.6924,-0.6922,-0.6912,-0.691,-0.6904,-0.6891,-0.6887,-0.6906,-0.6907,-0.6907,0,-0.7622,-0.7536,-0.7484,-0.7456,-0.7375,-0.7351,-0.7315,-0.7257,-0.7222,-0.7168,-0.7144,-0.7084,-0.7051,-0.7004,-0.6954,-0.6956,-0.6884,-0.6876,-0.6859,-0.686,-0.6844,-0.6845,-0.6825,-0.6827,-0.6827,-0.6827,-0.6827,0,-0.76,-0.7559,-0.749,-0.7457,-0.741,-0.736,-0.7314,-0.7275,-0.7223,-0.7181,-0.7142,-0.7103,-0.704,-0.6992,-0.6952,-0.6896,-0.6882,-0.6857,-0.6847,-0.686,-0.6863,-0.6837,-0.6837,-0.6826,-0.6826,-0.6826,-0.6826,0,-0.7607,-0.7559,-0.7499,-0.7428,-0.7409,-0.7377,-0.7315,-0.7281,-0.7241,-0.7188,-0.7173,-0.7109,-0.7051,-0.6997,-0.6919,-0.6892,-0.6836,-0.6823,-0.6856,-0.6851,-0.6835,-0.6837,-0.6797,-0.6788,-0.6797,-0.6797,-0.6797,0,-0.7596,-0.7564,-0.749,-0.746,-0.7426,-0.7379,-0.7344,-0.7293,-0.7258,-0.7188,-0.7162,-0.7102,-0.7051,-0.696,-0.6905,-0.6845,-0.683,-0.682,-0.682,-0.6835,-0.6828,-0.683,-0.6826,-0.682,-0.682,-0.6821,-0.6821,0,-0.7581,-0.7559,-0.7511,-0.7455,-0.7415,-0.7368,-0.7319,-0.7296,-0.7236,-0.7198,-0.714,-0.7101,-0.7022,-0.6962,-0.6897,-0.6857,-0.6828,-0.6822,-0.6814,-0.6826,-0.6847,-0.6834,-0.6858,-0.6822,-0.6822,-0.6822,-0.6822,-0.6822,-0.7577,-0.7547,-0.749,-0.7438,-0.7397,-0.7353,-0.7318,-0.7274,-0.7226,-0.716,-0.7132,-0.7073,-0.7013,-0.6923,-0.6884,-0.6835,-0.6829,-0.6818,-0.6815,-0.6813,-0.6815,-0.6856,-0.6823,-0.6823,-0.6823,-0.6823,-0.6822,0,-0.7559,-0.7521,-0.7474,-0.7408,-0.7367,-0.7347,-0.7292,-0.7258,-0.7207,-0.7156,-0.7107,-0.704,-0.6982,-0.6923,-0.6862,-0.6834,-0.6819,-0.6819,-0.682,-0.6811,-0.6825,-0.6837,-0.6832,-0.6832,-0.6832,-0.6832,-0.6832,-0.6832,-0.7544,-0.7492,-0.7464,-0.739,-0.7352,-0.7295,-0.7266,-0.7224,-0.7183,-0.711,-0.7063,-0.7026,-0.6971,-0.6905,-0.6851,-0.6835,-0.6813,-0.6817,-0.6797,-0.681,-0.681,-0.681,-0.6821,-0.6813,-0.6813,-0.6787,-0.6787,-0.6786]},{"header":{"parameterUnit":"m.s-1","parameterCategory":1,"la1":30.2991,"la2":30.254,"lo1":-89.0895,"lo2":-89.0444,"dy":0.0017,"dx":0.0017,"nx":28,"ny":28,"refTime":"2024-06-03T09:00:00:Z","depth":0,"parameterNumber":3,"parameterNumberName":"V-component_of_WINDS"},"data":[0,0,0,0,0,0,0,0,0,0,0,0,0,0,0,0,0,0,0,0,0,0,0,0,0,0,0,0,0,0,0,0,0,0,0,0,0,0,0,0,0,0,0,0,0,0,0,0,0,0,0,0,0,0,0,0,0,0,5.4517,5.4517,0,5.4558,5.4559,5.4559,5.4544,5.4544,5.4543,5.4542,5.4581,5.4582,5.4584,0,0,0,0,0,0,0,0,0,0,0,0,0,5.4421,5.4423,5.4517,5.4517,5.4518,5.4558,5.4559,5.4559,5.4545,5.4543,5.4542,5.4541,5.458,5.4582,5.4584,0,0,0,0,0,0,0,0,0,0,0,0,0,5.4463,5.4424,5.4517,5.4515,5.4516,5.4558,5.4559,5.456,5.4545,5.4543,5.4542,5.4541,5.4579,5.4582,5.4585,5.463,0,0,5.4593,5.4595,0,0,0,0,0,0,0,0,5.446,5.4466,5.4515,5.4515,5.4516,5.4545,5.454,5.4583,5.4545,5.4534,5.4542,5.454,5.457,5.4573,5.4584,5.4632,5.4633,5.4594,5.4595,5.4597,5.4597,0,0,0,0,0,0,0,5.4458,5.4464,5.4533,5.4516,5.4516,5.4512,5.4516,5.4548,5.4559,5.4534,5.4534,5.4539,5.4569,5.4581,5.4585,5.4634,5.4594,5.4596,5.4598,5.4599,5.4723,5.4724,0,0,0,0,0,0,5.4455,5.4462,5.4532,5.4534,5.4484,5.4515,5.4519,5.4537,5.4558,5.456,5.454,5.4538,5.4577,5.4581,5.4586,5.4642,5.4597,5.4599,5.4601,5.4721,5.4723,5.4725,0,0,0,0,0,0,5.4453,5.4461,5.453,5.4498,5.4506,5.4518,5.4537,5.4538,5.455,5.4563,5.4564,5.455,5.4576,5.4582,5.462,5.4643,5.4601,5.4603,5.4719,5.4722,5.4724,5.4752,0,0,0,0,0,0,5.445,5.4461,5.4478,5.4499,5.4508,5.4564,5.4539,5.454,5.4556,5.4553,5.4572,5.4574,5.4575,5.4616,5.4623,5.4646,5.4605,5.4717,5.472,5.4723,5.4749,5.4755,5.4761,0,0,0,0,0,5.4447,5.4483,5.4479,5.4488,5.4531,5.4565,5.4571,5.4573,5.4557,5.4575,5.4583,5.4574,5.4639,5.462,5.4627,5.4652,5.4716,5.472,5.4723,5.4747,5.4754,5.476,0,0,0,0,0,0,5.4464,5.4486,5.4482,5.4526,5.4544,5.4563,5.4585,5.458,5.4601,5.4598,5.4598,5.4603,5.4642,5.465,5.4629,5.4697,5.4675,5.468,5.4691,5.4698,5.4703,5.47,5.4608,0,0,0,0,0,5.4473,5.45,5.4518,5.4555,5.4565,5.4574,5.4588,5.4589,5.4607,5.4614,5.4625,5.4642,5.4666,5.4682,5.4705,5.4751,5.4755,5.4771,5.4777,5.4781,5.4786,5.4812,5.482,5.4737,5.4737,5.4736,0,0,5.4491,5.4507,5.4524,5.4559,5.4573,5.4601,5.458,5.4609,5.463,5.4618,5.4655,5.4664,5.4683,5.4725,5.4744,5.4733,5.481,5.4786,5.4789,5.4792,5.4816,5.4824,5.4831,5.4739,5.4739,5.4738,0,0,5.454,5.4554,5.4588,5.4603,5.4626,5.4631,5.464,5.466,5.4666,5.4703,5.4695,5.4719,5.4761,5.4776,5.4788,5.4845,5.4837,5.4852,5.4881,5.4906,5.4913,5.4919,5.494,5.4947,5.4856,5.4856,5.4857,0,5.456,5.4603,5.4605,5.4637,5.4653,5.4645,5.4679,5.4693,5.4721,5.4732,5.472,5.4774,5.4786,5.4832,5.4846,5.4856,5.4866,5.485,5.4912,5.4918,5.4923,5.4943,5.4951,5.4858,5.4858,5.4858,5.4858,0,5.4627,5.4656,5.4681,5.4711,5.4729,5.4761,5.4769,5.4787,5.4786,5.4793,5.4832,5.4847,5.4874,5.4884,5.4882,5.4931,5.4924,5.4912,5.4889,5.4933,5.4952,5.496,5.4861,5.486,5.486,5.4859,0,0,5.4686,5.4719,5.4728,5.4742,5.4767,5.4789,5.4822,5.485,5.4866,5.4885,5.4913,5.495,5.4939,5.4954,5.4954,5.4976,5.5021,5.4961,5.4962,5.4973,5.5077,5.5086,5.5095,5.5016,5.5018,5.5019,5.5076,0,5.4737,5.4796,5.48,5.4853,5.4881,5.4875,5.4903,5.4921,5.4929,5.4953,5.4961,5.4988,5.4971,5.498,5.5002,5.5011,5.5042,5.5007,5.5041,5.5043,5.5038,5.5105,5.5115,5.5168,5.5083,5.5084,5.5085,0,5.4805,5.4829,5.4885,5.4908,5.492,5.4946,5.4973,5.4996,5.5016,5.502,5.5038,5.5035,5.5068,5.5045,5.509,5.5066,5.5081,5.5087,5.5089,5.5093,5.5067,5.5111,5.5184,5.5193,5.5096,5.5096,5.5095,0,5.4844,5.4891,5.4931,5.4943,5.497,5.4989,5.5001,5.502,5.5037,5.506,5.5071,5.5097,5.5111,5.5131,5.5136,5.5118,5.5182,5.5158,5.5186,5.5186,5.52,5.5199,5.5277,5.5208,5.5208,5.5208,5.5208,0,5.4901,5.4936,5.4949,5.4974,5.5013,5.5017,5.5055,5.5066,5.5084,5.511,5.5105,5.513,5.5134,5.5159,5.5162,5.52,5.5206,5.5211,5.5211,5.5212,5.5211,5.5221,5.5218,5.521,5.5209,5.5209,5.5209,0,5.4952,5.4962,5.5006,5.5029,5.5035,5.5063,5.5083,5.5106,5.5114,5.5147,5.5155,5.5168,5.5197,5.5204,5.5238,5.5241,5.5286,5.5283,5.528,5.528,5.5308,5.5306,5.5396,5.5408,5.533,5.5331,5.5331,0,5.4988,5.5015,5.5042,5.5061,5.5074,5.5103,5.5121,5.5127,5.5146,5.5172,5.5193,5.5223,5.5247,5.5294,5.5306,5.5333,5.533,5.536,5.5334,5.5334,5.5332,5.5331,5.5334,5.5365,5.5366,5.5367,5.5367,0,5.5052,5.5057,5.5084,5.5114,5.5136,5.5159,5.5181,5.5196,5.5204,5.5226,5.5257,5.5276,5.5313,5.5343,5.537,5.5381,5.5376,5.5375,5.5383,5.5384,5.5382,5.5385,5.5295,5.5373,5.5373,5.5372,5.5372,5.5372,5.5097,5.5122,5.5146,5.5177,5.5194,5.5215,5.5239,5.5251,5.5278,5.531,5.5311,5.5346,5.5366,5.5403,5.5416,5.5443,5.5433,5.5445,5.5448,5.5451,5.5454,5.5378,5.5447,5.5447,5.5447,5.5447,5.5447,0,5.5162,5.5178,5.5206,5.5239,5.5263,5.5258,5.5282,5.5302,5.5334,5.5354,5.5379,5.5416,5.5445,5.5459,5.5488,5.5507,5.5505,5.5514,5.5513,5.5516,5.546,5.5451,5.5515,5.5515,5.5515,5.5515,5.5515,5.5515,5.5199,5.5241,5.5248,5.5299,5.5313,5.5349,5.5363,5.5383,5.54,5.5442,5.5467,5.5477,5.5495,5.5525,5.5552,5.5555,5.5566,5.5577,5.5579,5.5527,5.552,5.5513,5.5505,5.5579,5.5579,5.5633,5.5634,5.5634]}]]